"Time","Temp","Dewpoint","Humidity","Pressure","Direction","Speed","Gust","Precip","PrecipRate"
"00:04:56","76.2","71","84","29.75","153","0.2","1.2","0.00","0.00"
"00:09:59","76","70.8","84","29.75","153","0.2","1.2","0.00","0.00"
"00:14:59","75.9","71","84.9","29.76","153","0","0","0.00","0.00"
"00:19:55","75.7","70.9","85","29.76","153","0.2","2.4","0.00","0.00"
"00:24:56","75.6","70.8","85","29.76","153","1.1","2.4","0.00","0.00"
"00:29:57","75.5","70.9","85.4","29.76","150","1.2","2.4","0.00","0.00"
"00:34:57","75.6","71.2","86.2","29.76","156","2.6","7.2","0.00","0.00"
"00:39:59","75.8","71.7","87","29.76","160","2.5","6","0.00","0.00"
"00:44:59","75.9","71.7","86.8","29.76","157","3.2","7.2","0.00","0.00"
"00:49:56","76","71.5","86","29.75","167","2.8","6.9","0.00","0.00"
"00:54:56","76.1","71.6","86","29.75","164","2.1","4.8","0.00","0.00"
"00:59:56","76.2","71.7","86","29.75","185","3.2","7.2","0.00","0.00"
"01:04:58","76.2","71.7","86","29.74","154","2.8","6","0.00","0.00"
"01:09:57","76.2","71.7","86","29.74","158","2","4.8","0.00","0.00"
"01:14:58","76.1","71.6","86","29.74","185","2.2","4.8","0.00","0.00"
"01:19:56","76","71.5","86","29.74","173","2.1","6","0.00","0.00"
"01:24:56","75.9","71.4","86","29.74","183","2.6","6","0.00","0.00"
"01:29:56","75.8","71.5","86.6","29.74","157","0.8","2.4","0.00","0.00"
"01:34:57","75.7","71.6","87","29.73","157","1.6","3.6","0.00","0.00"
"01:39:56","75.6","71.5","87","29.73","162","2.1","6","0.00","0.00"
"01:44:56","75.5","71.4","87","29.73","188","2.5","6","0.00","0.00"
"01:49:57","75.4","71.3","87","29.73","187","3.7","8.4","0.00","0.00"
"01:54:57","75.3","71.2","87","29.73","188","3","7.2","0.00","0.00"
"01:59:58","75.3","71.2","87","29.73","192","3.2","6","0.00","0.00"
"02:04:58","75.3","71.2","87","29.72","173","3.3","7.2","0.00","0.00"
"02:09:58","75.3","71.2","87","29.72","168","2.7","7.2","0.00","0.00"
"02:14:59","75.3","71.2","87","29.72","197","3.4","8.4","0.00","0.00"
"02:19:59","75.2","71.1","87","29.72","182","3","8.1","0.00","0.00"
"02:24:56","75.1","71.2","87.9","29.72","181","2.7","6","0.00","0.00"
"02:29:56","74.9","71.1","88","29.72","172","2.4","4.8","0.00","0.00"
"02:34:57","74.8","71","88","29.72","176","2.5","6","0.00","0.00"
"02:39:58","74.6","70.8","88","29.72","181","2.6","6","0.00","0.00"
"02:44:59","74.6","70.8","88","29.72","201","3","8.4","0.00","0.00"
"02:49:59","74.4","70.9","88.9","29.70","201","3.5","7.2","0.00","0.00"
"02:54:56","74.3","70.8","89","29.70","208","3.3","6","0.00","0.00"
"02:59:56","74.2","70.7","89","29.70","189","3.3","8.4","0.00","0.00"
"03:04:57","74.2","70.7","89","29.70","204","3.5","8.1","0.00","0.00"
"03:09:57","74.1","70.7","89.2","29.70","205","2.8","6","0.00","0.00"
"03:14:58","74.1","70.8","89.5","29.70","204","1.3","3.6","0.00","0.00"
"03:19:59","74","70.9","90","29.70","205","1","2.4","0.00","0.00"
"03:24:56","74","70.9","90","29.70","205","0.2","1.2","0.00","0.00"
"03:29:56","73.9","70.8","90","29.71","205","0.5","2.4","0.00","0.00"
"03:34:57","73.8","70.7","90","29.71","205","1","3.6","0.00","0.00"
"03:39:59","73.6","70.5","90","29.71","205","0.3","2.4","0.00","0.00"
"03:44:59","73.5","70.6","90.8","29.71","324","0.9","4.8","0.00","0.00"
"03:49:56","73.3","70.5","91","29.71","348","1.6","3.6","0.00","0.00"
"03:54:58","73.2","70.4","91","29.71","326","1.1","7.2","0.00","0.00"
"03:59:57","73","70.4","91.6","29.71","287","1.1","4.8","0.00","0.00"
"04:04:58","73","70.5","92","29.71","247","0.2","3.5","0.00","0.00"
"04:09:59","72.9","70.4","92","29.71","247","0","1.2","0.00","0.00"
"04:14:56","72.8","70.3","92","29.71","247","0.4","2.4","0.00","0.00"
"04:19:56","72.8","70.3","92","29.71","247","0.4","2.4","0.00","0.00"
"04:24:58","72.8","70.3","92","29.71","247","0","0","0.00","0.00"
"04:29:59","72.7","70.2","92","29.71","247","0","0","0.00","0.00"
"04:34:59","72.6","70.2","92.3","29.71","247","0.3","2.4","0.00","0.00"
"04:39:57","72.5","70.3","92.7","29.71","247","0","1.2","0.00","0.00"
"04:44:58","72.4","70.3","93","29.72","247","0.1","2.4","0.00","0.00"
"04:49:59","72.3","70.2","93","29.72","247","0.1","2.4","0.00","0.00"
"04:54:59","72.2","70.1","93","29.72","247","0.9","2.4","0.00","0.00"
"04:59:56","72.2","70.1","92.9","29.72","247","0.3","2.4","0.00","0.00"
"05:04:57","72.2","69.6","91.8","29.72","245","0.6","2.4","0.00","0.00"
"05:09:57","72.3","69","89.4","29.72","270","1.7","6","0.00","0.00"
"05:14:58","72.8","68.6","86.8","29.72","355","1.3","5.8","0.00","0.00"
"05:19:59","73.1","68.4","85.3","29.72","326","1.2","4.8","0.00","0.00"
"05:24:58","73.5","67.8","82.5","29.72","269","2.2","12","0.00","0.00"
"05:29:59","74.2","67.3","79.1","29.73","298","4","11.5","0.00","0.00"
"05:34:59","74.7","66.9","76.8","29.73","273","2","4.8","0.00","0.00"
"05:39:56","75","66.6","75.2","29.73","302","3.4","10.8","0.00","0.00"
"05:44:56","75.2","66.5","74.6","29.73","345","1.5","5.8","0.00","0.00"
"05:49:57","75.1","66.3","74.3","29.73","327","2.8","14.4","0.00","0.00"
"05:54:57","74.8","65","71.3","29.73","324","4.3","15","0.00","0.00"
"05:59:58","74.6","63.3","67.9","29.75","308","4","17.3","0.00","0.00"
"06:04:58","74.4","61.7","64.6","29.75","287","5.2","12","0.00","0.00"
"06:09:58","74.3","61","63.2","29.75","323","3.6","10.8","0.00","0.00"
"06:14:59","74.1","60.9","63.4","29.76","243","3.2","7.2","0.00","0.00"
"06:19:56","73.9","60.7","63.4","29.76","269","3","12","0.00","0.00"
"06:24:56","73.8","60.8","63.9","29.76","327","3","8.4","0.00","0.00"
"06:29:57","73.5","61","64.8","29.77","290","2.4","10.8","0.00","0.00"
"06:34:57","73.1","60.8","65.5","29.77","323","2.8","13.2","0.00","0.00"
"06:39:58","72.6","60.6","65.9","29.77","244","3","7.2","0.00","0.00"
"06:44:59","72.3","60.7","66.8","29.78","256","3.1","7.2","0.00","0.00"
"06:49:59","72.2","60.5","66.7","29.78","314","3.9","14.4","0.00","0.00"
"06:54:59","72.1","60.4","66.8","29.78","289","3.3","15","0.00","0.00"
"06:59:59","71.9","60.6","67.6","29.79","272","2.5","8.1","0.00","0.00"
"07:04:56","71.7","60.6","68","29.79","281","1.9","4.8","0.00","0.00"
"07:09:59","71.7","60.7","68.2","29.79","312","2.8","8.4","0.00","0.00"
"07:14:56","71.8","60.8","68.2","29.80","318","2.5","5.8","0.00","0.00"
"07:19:57","71.9","61.1","68.7","29.80","246","1.6","4.8","0.00","0.00"
"07:24:56","71.8","60.9","68.4","29.80","299","2.2","4.8","0.00","0.00"
"07:29:56","71.7","61","69","29.80","233","2.8","6","0.00","0.00"
"07:34:59","71.6","61.1","69.5","29.80","304","2","7.2","0.00","0.00"
"07:39:56","71.5","61.2","70","29.80","307","2.5","6","0.00","0.00"
"07:44:56","71.4","61.2","70.1","29.81","316","2.6","7.2","0.00","0.00"
"07:49:56","71.3","61.3","70.8","29.81","319","1.1","3.6","0.00","0.00"
"07:54:56","71.3","61.4","71.2","29.81","323","0.8","4.8","0.00","0.00"
"07:59:57","71.6","61.6","70.8","29.81","292","1.6","3.6","0.00","0.00"
"08:04:57","72","61.7","70.1","29.81","308","1.1","3.6","0.00","0.00"
"08:09:57","72.4","62","69.8","29.81","280","1.5","4.8","0.00","0.00"
"08:14:58","72.6","62","69.3","29.81","244","2.6","7.2","0.00","0.00"
"08:19:58","72.9","62.3","69.5","29.81","220","1.7","3.6","0.00","0.00"
"08:24:58","73.1","62.6","69.7","29.81","192","1.3","4.8","0.00","0.00"
"08:29:59","73.4","62.6","69.1","29.82","323","2.6","4.8","0.00","0.00"
"08:34:59","73.7","62.8","68.9","29.82","5","2.1","7.2","0.00","0.00"
"08:39:56","73.9","62.7","68","29.82","339","3","7.2","0.00","0.00"
"08:44:56","74.2","63.2","68.5","29.82","326","3.4","8.4","0.00","0.00"
"08:49:56","74.4","63.4","68.6","29.82","293","3.5","10.8","0.00","0.00"
"08:54:56","74.6","63.3","67.9","29.82","307","2.5","7.2","0.00","0.00"
"08:59:57","74.7","63.1","67.2","29.82","339","3.8","15","0.00","0.00"
"09:04:57","74.7","63.1","67.2","29.82","321","3.4","8.4","0.00","0.00"
"09:09:57","74.9","63.6","68","29.82","349","1.8","9.6","0.00","0.00"
"09:14:58","75.3","63.6","67","29.82","325","2.4","9.2","0.00","0.00"
"09:19:57","75.7","63.9","66.8","29.82","273","3.5","8.4","0.00","0.00"
"09:24:56","76","63.9","66.3","29.82","222","2.6","7.2","0.00","0.00"
"09:29:56","76.3","64","65.7","29.83","320","3.3","6.9","0.00","0.00"
"09:34:56","76.4","63.4","64.3","29.83","263","4","16.1","0.00","0.00"
"09:39:56","76.4","63.4","64.2","29.83","327","5","12","0.00","0.00"
"09:44:56","76.2","63","63.6","29.83","308","4.8","15","0.00","0.00"
"09:49:56","76.2","63","63.8","29.83","310","4","8.4","0.00","0.00"
"09:54:59","76.5","63.3","63.8","29.83","332","4.1","16.8","0.00","0.00"
"09:59:59","76.7","63","62.7","29.83","329","5","13.2","0.00","0.00"
"10:04:59","76.9","63.2","62.8","29.83","315","2.9","10.4","0.00","0.00"
"10:09:59","77.5","64.2","63.7","29.83","210","2.5","6.9","0.00","0.00"
"10:14:59","77.6","63","60.8","29.84","331","5.2","19.6","0.00","0.00"
"10:19:58","77.1","62.7","61.2","29.84","306","4.3","12","0.00","0.00"
"10:24:57","77.8","63.8","62.1","29.84","303","3.5","8.4","0.00","0.00"
"10:29:57","78.2","63.9","61.6","29.84","300","3.7","16.8","0.00","0.00"
"10:34:57","77.6","62.1","59","29.84","301","5.6","17.3","0.00","0.00"
"10:39:58","78.2","62.7","59.1","29.84","273","4.1","9.2","0.00","0.00"
"10:44:57","78.4","62.6","58.4","29.85","328","5.7","16.1","0.00","0.00"
"10:49:57","78.4","63.1","59.4","29.85","280","3.1","11.5","0.00","0.00"
"10:54:57","78.7","62.6","57.8","29.85","330","6.3","16.1","0.00","0.00"
"10:59:57","78.5","63.1","59.2","29.85","320","4.3","18","0.00","0.00"
"11:04:59","79.6","63","57","29.85","322","4.9","13.2","0.00","0.00"
"11:09:57","79.1","62.5","56.9","29.85","299","4.2","12.7","0.00","0.00"
"11:14:56","79.1","62.5","56.8","29.86","301","5.2","13.2","0.00","0.00"
"11:19:58","79.5","62.5","56.3","29.86","348","5.9","15","0.00","0.00"
"11:24:58","78.8","62.4","57.1","29.86","344","3.8","12","0.00","0.00"
"11:29:59","78.1","62.3","58.3","29.86","353","4.7","12","0.00","0.00"
"11:34:58","78.3","63.3","60","29.86","321","2.6","8.4","0.00","0.00"
"11:39:57","79.1","63.9","59.6","29.86","307","1.7","4.8","0.00","0.00"
"11:44:58","79.4","63.4","58.2","29.86","297","4.6","12","0.00","0.00"
"11:49:59","78.6","62.7","58.2","29.86","334","3.5","8.4","0.00","0.00"
"11:54:59","78.3","63","59.4","29.86","38","1.9","8.1","0.00","0.00"
"11:59:56","78.8","62.7","57.8","29.86","336","4.7","16.1","0.00","0.00"
"12:04:57","78.9","62.7","57.7","29.85","317","3.4","9.2","0.00","0.00"
"12:09:59","79.2","62.8","57.4","29.85","346","2.8","8.4","0.00","0.00"
"12:14:57","79.4","62.9","57.1","29.85","350","4.2","12","0.00","0.00"
"12:19:59","79.2","62.3","56.3","29.85","345","3.9","13.2","0.00","0.00"
"12:24:56","79.7","62.6","56","29.85","345","3.9","10.8","0.00","0.00"
"12:29:57","80.4","62.3","54.1","29.85","348","4.1","12","0.00","0.00"
"12:34:58","80.9","62.5","53.6","29.84","357","5.5","17.3","0.00","0.00"
"12:39:57","80.6","61","51.4","29.84","312","4.4","10.8","0.00","0.00"
"12:44:58","80.9","62.2","53","29.84","336","4.8","16.1","0.00","0.00"
"12:49:56","81.9","62.8","52.6","29.84","296","5.1","15.6","0.00","0.00"
"12:54:57","81.8","61.9","50.9","29.84","310","4.7","16.1","0.00","0.00"
"12:59:58","81","61.8","52.1","29.84","336","3.5","7.2","0.00","0.00"
"13:04:56","80.7","61","51.2","29.84","332","3.9","17.3","0.00","0.00"
"13:09:57","80.3","60.7","51.3","29.84","285","5.4","17.3","0.00","0.00"
"13:14:56","81.4","62.7","53.2","29.84","259","3.6","16.1","0.00","0.00"
"13:19:59","82.8","62.1","49.8","29.84","306","5.5","16.1","0.00","0.00"
"13:24:59","82.7","60.7","47.6","29.84","253","5.5","17.3","0.00","0.00"
"13:29:56","83.2","61.2","47.7","29.84","278","4.8","15","0.00","0.00"
"13:34:57","83.5","61.2","47.2","29.84","271","4.2","12","0.00","0.00"
"13:39:56","83.7","61.3","47.1","29.84","285","3.6","12","0.00","0.00"
"13:44:57","83.8","61.4","47","29.84","336","4.5","15","0.00","0.00"
"13:49:59","83.7","61.7","47.6","29.84","307","4.5","8.4","0.00","0.00"
"13:54:56","84.1","62.5","48.3","29.84","21","2.8","7.2","0.00","0.00"
"13:59:57","83.8","62.7","49.2","29.84","330","5.2","16.1","0.00","0.00"
"14:04:59","83.8","63.1","49.9","29.84","337","5.3","19.6","0.00","0.00"
"14:09:56","84.1","63.2","49.6","29.84","333","5.4","15","0.00","0.00"
"14:14:58","84.8","62.8","48","29.84","329","4.7","13.2","0.00","0.00"
"14:19:56","84.6","61.5","46.1","29.84","322","6","19.6","0.00","0.00"
"14:24:57","84.6","60.9","45","29.84","319","4.5","12.7","0.00","0.00"
"14:29:59","85","62.2","46.5","29.84","325","6.2","17.3","0.00","0.00"
"14:34:56","84.6","62","46.9","29.84","314","4.1","16.1","0.00","0.00"
"14:39:58","84.4","61.4","46","29.84","323","5.7","16.8","0.00","0.00"
"14:44:56","83.8","60.6","45.6","29.84","315","6.7","17.3","0.00","0.00"
"14:49:57","84.1","61.6","46.9","29.84","348","4","16.1","0.00","0.00"
"14:54:58","85.1","63.3","48.2","29.84","335","4.6","14.4","0.00","0.00"
"14:59:56","85.3","62.5","46.5","29.84","339","5.1","15","0.00","0.00"
"15:04:57","85.1","62.7","47.1","29.84","2","3.8","12","0.00","0.00"
"15:09:59","85.8","62.6","46.1","29.84","335","5.6","16.8","0.00","0.00"
"15:14:57","85","61.2","44.9","29.84","327","4.8","17.3","0.00","0.00"
"15:19:59","85.2","62.2","46.3","29.83","325","4.3","15.6","0.00","0.00"
"15:24:56","85","60.5","43.7","29.83","334","6.6","18.4","0.00","0.00"
"15:29:58","84.5","60.2","44","29.84","321","4.9","13.2","0.00","0.00"
"15:34:59","84.4","60.1","44","29.84","339","7.2","15","0.00","0.00"
"15:39:58","84.1","60.5","45","29.84","340","6.4","17.3","0.00","0.00"
"15:44:56","84.9","60.7","44.3","29.84","299","4.8","15","0.00","0.00"
"15:49:57","84.9","60.1","43.3","29.84","318","4.6","12","0.00","0.00"
"15:54:58","85.7","60.8","43.4","29.84","325","4.2","12","0.00","0.00"
"15:59:57","85.4","59.5","41.6","29.84","353","5.7","17.3","0.00","0.00"
"16:04:59","85.2","59.4","41.8","29.84","283","4.6","14.4","0.00","0.00"
"16:09:56","85.4","58.6","40.5","29.84","342","5.5","15","0.00","0.00"
"16:14:58","85.3","58.3","40.1","29.84","331","5.7","18.4","0.00","0.00"
"16:19:56","85.2","58.5","40.5","29.84","336","5.5","15","0.00","0.00"
"16:24:58","84.9","58.2","40.3","29.84","347","5.7","15.6","0.00","0.00"
"16:29:59","84.9","57.8","40","29.84","330","4.6","12.7","0.00","0.00"
"16:34:56","85.4","58.8","40.6","29.83","322","4.2","8.4","0.00","0.00"
"16:39:59","85.5","57.2","38.3","29.83","345","6.8","20.7","0.00","0.00"
"16:44:57","84.9","56.3","37.8","29.83","330","6.5","17.3","0.00","0.00"
"16:49:55","84.8","56.7","38.6","29.83","331","6.4","18.4","0.00","0.00"
"16:54:57","84.9","57","38.8","29.83","327","6.1","18.4","0.00","0.00"
"16:59:58","84.6","56.8","38.8","29.84","328","5.7","16.8","0.00","0.00"
"17:04:56","84.4","57.3","39.8","29.84","338","5.2","17.3","0.00","0.00"
"17:09:57","84.3","57.2","39.7","29.84","347","7.7","18","0.00","0.00"
"17:14:56","83.9","57.9","41.4","29.84","330","5.7","18.4","0.00","0.00"
"17:19:58","83.8","57.2","40.5","29.84","319","6.6","16.1","0.00","0.00"
"17:24:59","83.6","56.7","40","29.84","327","7.1","20.7","0.00","0.00"
"17:29:57","83.2","56.5","40.1","29.85","332","5.4","12","0.00","0.00"
"17:34:58","83.4","56.6","40.2","29.85","320","5","13.2","0.00","0.00"
"17:39:57","83.4","57","40.7","29.85","323","4.9","19.2","0.00","0.00"
"17:44:58","83.3","57","40.8","29.85","315","5.9","17.3","0.00","0.00"
"17:49:56","83.2","57.7","42","29.85","322","4.1","12","0.00","0.00"
"17:54:58","83.2","57.1","41.2","29.85","351","6.2","18","0.00","0.00"
"17:59:59","82.7","57","41.6","29.86","342","5.4","18.4","0.00","0.00"
"18:04:57","82.7","57.2","41.8","29.86","323","3.4","10.8","0.00","0.00"
"18:09:59","82.5","56.6","41.2","29.86","338","5","15","0.00","0.00"
"18:14:57","82.1","56.5","41.7","29.86","335","4.9","17.3","0.00","0.00"
"18:19:59","81.7","55.9","41.3","29.86","331","4.7","18.4","0.00","0.00"
"18:24:56","81.1","55.6","41.6","29.86","293","5.6","15","0.00","0.00"
"18:29:58","80.6","55.2","41.7","29.87","307","6.6","21.9","0.00","0.00"
"18:34:59","80.3","55.4","42.5","29.87","341","4.5","15","0.00","0.00"
"18:39:58","80.1","55.3","42.6","29.87","330","5.7","18.4","0.00","0.00"
"18:44:56","79.8","54.9","42.4","29.87","333","6","19.6","0.00","0.00"
"18:49:57","79.4","54.9","43","29.87","340","6","15","0.00","0.00"
"18:54:58","79","54.6","43","29.87","341","6.2","17.3","0.00","0.00"
"18:59:56","78.9","54.7","43.3","29.88","346","6.4","17.3","0.00","0.00"
"19:04:56","78.6","54.5","43.4","29.88","331","5.9","20.7","0.00","0.00"
"19:09:59","78.3","54.3","43.5","29.88","310","3.8","10.4","0.00","0.00"
"19:14:56","78.1","54.3","43.9","29.88","328","3.2","8.1","0.00","0.00"
"19:19:56","77.9","54.3","44.2","29.88","335","5.5","19.6","0.00","0.00"
"19:24:56","77.6","54.1","44.3","29.88","321","3.4","8.1","0.00","0.00"
"19:29:57","77.3","54","44.5","29.89","323","3","7.2","0.00","0.00"
"19:34:57","77","54","45.2","29.89","315","3.7","13.2","0.00","0.00"
"19:39:58","76.6","53.7","45","29.89","310","3","10.8","0.00","0.00"
"19:44:56","76.4","53.6","45.2","29.89","309","2.9","7.2","0.00","0.00"
"19:49:56","76.1","53.5","45.5","29.89","337","3.2","8.4","0.00","0.00"
"19:54:57","75.8","53","45.2","29.89","315","3.2","12","0.00","0.00"
"19:59:57","75.6","53.2","45.7","29.90","276","2.2","8.1","0.00","0.00"
"20:04:58","75.4","52.7","45.3","29.90","329","2.8","7.2","0.00","0.00"
"20:09:58","75.2","53","46","29.90","320","2.7","7.2","0.00","0.00"
"20:14:58","75","52.3","45.2","29.90","319","4.9","17.3","0.00","0.00"
"20:19:59","74.9","52.2","45.2","29.90","317","4.2","10.8","0.00","0.00"
"20:24:59","74.7","52.4","45.8","29.90","299","3.1","10.8","0.00","0.00"
"20:29:56","74.4","52.3","46","29.91","315","3.1","8.4","0.00","0.00"
"20:34:56","74.3","52.3","46.2","29.91","287","2.7","6","0.00","0.00"
"20:39:58","74","52.2","46.4","29.91","326","3.8","10.8","0.00","0.00"
"20:44:59","74","52.3","46.7","29.92","339","3.8","10.8","0.00","0.00"
"20:49:59","73.8","52.5","47.3","29.92","328","2.6","10.8","0.00","0.00"
"20:54:59","73.5","52.2","47.3","29.92","325","3.6","10.4","0.00","0.00"
"20:59:56","73.3","52.4","48","29.93","325","3.8","7.2","0.00","0.00"
"21:04:56","73.1","52.5","48.6","29.93","298","2.6","9.6","0.00","0.00"
"21:09:56","72.9","52.5","48.8","29.93","331","3.8","9.2","0.00","0.00"
"21:14:57","72.6","52.3","49","29.94","335","4.3","8.4","0.00","0.00"
"21:19:58","72.4","52.4","49.5","29.94","338","4.3","10.8","0.00","0.00"
"21:24:58","72.2","52.6","50.3","29.94","330","3.2","10.4","0.00","0.00"
"21:29:59","71.9","52.5","50.5","29.94","340","3.9","8.4","0.00","0.00"
"21:34:55","71.8","52.7","50.9","29.94","338","4.6","17.3","0.00","0.00"
"21:39:57","71.8","52.7","50.9","29.94","319","2.9","17.3","0.00","0.00"
"21:44:58","71.6","52.6","51.1","29.94","356","3.2","7.2","0.00","0.00"
"21:49:59","71.4","52.3","51","29.94","347","2.8","13.2","0.00","0.00"
"21:54:59","71.3","52.4","51.3","29.94","355","2.3","5.8","0.00","0.00"
"21:59:56","71.2","52.5","51.6","29.95","356","1.4","6","0.00","0.00"
"22:04:57","71","52.6","52.3","29.95","317","2.2","4.8","0.00","0.00"
"22:09:56","70.7","52.6","52.7","29.95","292","1.3","3.6","0.00","0.00"
"22:14:58","70.6","52.6","53","29.96","314","1.4","4.8","0.00","0.00"
"22:19:59","70.6","52.3","52.3","29.96","334","3.9","13.2","0.00","0.00"
"22:24:59","70.8","52.4","52.2","29.96","333","3","8.4","0.00","0.00"
"22:29:59","70.8","52.4","52.2","29.96","298","1.1","3.6","0.00","0.00"
"22:34:59","70.5","52.3","52.6","29.96","303","1.1","4.8","0.00","0.00"
"22:39:57","70.3","52.3","52.8","29.96","357","1.3","4.8","0.00","0.00"
"22:44:58","70.2","52.4","53.2","29.96","313","1.4","3.6","0.00","0.00"
"22:49:58","70","52.3","53.5","29.96","289","1.5","4.8","0.00","0.00"
"22:54:59","69.8","52.4","53.9","29.96","316","2.4","4.8","0.00","0.00"
"22:59:59","69.8","52.3","53.8","29.97","342","2.1","8.4","0.00","0.00"
"23:04:56","69.9","52.3","53.5","29.97","327","1.9","10.8","0.00","0.00"
"23:09:56","70","52.3","53.4","29.97","328","2","10.4","0.00","0.00"
"23:14:57","70","52.5","53.9","29.98","341","1.5","6","0.00","0.00"
"23:19:59","69.8","52.4","54","29.98","346","2.7","7.2","0.00","0.00"
"23:24:56","69.8","52.4","54","29.98","306","1.5","6","0.00","0.00"
"23:29:57","69.7","52.6","54.7","29.98","7","1.2","5.8","0.00","0.00"
"23:34:57","69.4","52.5","54.9","29.98","349","0.6","3.6","0.00","0.00"
"23:39:59","69.2","52.5","55.3","29.98","348","0.4","3.6","0.00","0.00"
"23:44:56","68.9","52.6","56.1","29.99","347","1","4.8","0.00","0.00"
"23:49:56","68.6","52.6","56.6","29.99","347","0.8","4.6","0.00","0.00"
"23:54:57","68.4","52.6","57","29.99","347","0.3","2.4","0.00","0.00"
